STARLINK-1332 (45579 NORAD) Tracking and Keplerian Element Data

This shows tracking and keplerian element data for the satellite.

Feedback or suggestion? Click here.




ElementValue
Catalog45579
NameSTARLINK-1332
Epoch Orbit177
Epoch Day196.91667824
Epoch Year2020
RAAN351.5112
Inclination52.9982
Eccentricity0.0001336
Argument of Perigee38.2924
Mean Anonmoly199.3914
Mean Motion15.58247565
Decay Rate0.00038487
L11 45579U 20025BA 20196.91667824 .00038487 00000-0 50378-3 0 9996
L22 45579 52.9982 351.5112 0001336 38.2924 199.3914 15.58247565 1775

Live tracking and technical data element details for STARLINK-1332 (NORAD 45579). STARLINK-1332 can be tracked NOW for your location showing map with azimuth and elevation plus other details from your city location.

Track the satellite on the map from your city or location and see movement details for azimuth, elevation, latitude, longitude, range, height, and movement on the map or in text.







IsCatalogInMostPopularTable: catalog: 45579, numindb: 20
Update: records affected: 1



GetName: 45579 STARLINK-1332

Hit Count: updated at: Thu, 16 Jul 2020 04:04:05 GMT